Location: 433rd Scouts Home(Lloyd Manor Park, Etobicoke )
(43.6722°N, 79.5542°W)
Time: 01:43:16
(UTC-04:00)

Envisat - Pass Details

Date: 18 September 2021
Orbit: 764 x 766 km, 98.2° (Epoch: 23 October)

Event Time Altitude Azimuth Distance (km) Brightness Sun altitude
Rises 05:58:24 0° 20° (NNE) 3,241 6.7 -12.0°
Reaches altitude 10° 06:00:50 10° 27° (NNE) 2,310 6.1 -11.6°
Maximum altitude 06:05:39 41° 98° (E) 1,093 4.4 -10.8°
Drops below altitude 10° 06:10:25 10° 168° (SSE) 2,293 5.5 -9.9°
Sets 06:12:50 0° 176° (S) 3,214 6.2 -9.5°
